This is the latest recevied weather packets stored in our database for station/object DB0TGO-14. If no packets are shown the sender has not sent any weather packets the latest 1 day(s).
| Time | Temp. | Humidity | Pressure | Rain* | Wind** | Luminosity | Snow |
|---|---|---|---|---|---|---|---|
| 1777978557 | 18.33° C | 72% | 1010 hPa | 0 mm | 0.45 m/s, 158° | - | - |
| 1777978526 | 18.33° C | 73% | 1009.9 hPa | 0 mm | 0.45 m/s, 158° | - | - |
| 1777978418 | 18.33° C | 75% | 1010 hPa | 0 mm | 0.89 m/s, 158° | - | - |
| 1777978310 | 18.33° C | 76% | 1009.9 hPa | 0 mm | 0.89 m/s, 158° | - | - |
| 1777978210 | 18.33° C | 75% | 1009.9 hPa | 0 mm | 0.89 m/s, 158° | - | - |
| 1777978089 | 18.33° C | 75% | 1009.9 hPa | 0 mm | 0.89 m/s, 202° | - | - |
| 1777977971 | 18.33° C | 75% | 1009.9 hPa | 0 mm | 0.89 m/s, 202° | - | - |
| 1777977855 | 18.33° C | 75% | 1010 hPa | 0 mm | 0.89 m/s, 180° | - | - |
| 1777977735 | 18.33° C | 75% | 1010 hPa | 0 mm | 0.45 m/s, 158° | - | - |
| 1777977635 | 18.33° C | 75% | 1009.9 hPa | 0 mm | 0.89 m/s, 158° | - | - |
| 1777977525 | 18.33° C | 75% | 1010 hPa | 0 mm | 0.89 m/s, 158° | - | - |
| 1777977492 | 18.33° C | 75% | 1010 hPa | 0 mm | 0.89 m/s, 158° | - | - |
| 1777977420 | 18.33° C | 75% | 1010 hPa | 0 mm | 0.89 m/s, 158° | - | - |
| 1777977325 | 18.33° C | 75% | 1010 hPa | 0 mm | 0.89 m/s, 158° | - | - |
| 1777977225 | 18.33° C | 75% | 1010 hPa | 0 mm | 0.89 m/s, 135° | - | - |
| 1777977125 | 18.33° C | 74% | 1010 hPa | 0 mm | 0.89 m/s, 180° | - | - |
| 1777977025 | 18.33° C | 75% | 1010 hPa | 0 mm | 0.89 m/s, 202° | - | - |
| 1777976915 | 18.33° C | 75% | 1010.1 hPa | 0 mm | 0.89 m/s, 112° | - | - |
| 1777976810 | 18.33° C | 77% | 1010 hPa | 0 mm | 0.89 m/s, 112° | - | - |
| 1777976694 | 18.33° C | 81% | 1010.1 hPa | 0 mm | 0.89 m/s, 112° | - | - |
| 1777976585 | 18.33° C | 80% | 1010.2 hPa | 0 mm | 1.34 m/s, 112° | - | - |
| 1777976543 | 18.33° C | 81% | 1010.1 hPa | 0 mm | 1.34 m/s, 112° | - | - |
| 1777976345 | 18.33° C | 80% | 1010.1 hPa | 0 mm | 1.34 m/s, 68° | - | - |
| 1777976235 | 18.33° C | 78% | 1010.2 hPa | 0 mm | 1.34 m/s, 68° | - | - |
| 1777976120 | 18.33° C | 78% | 1010.2 hPa | 0 mm | 0.89 m/s, 90° | - | - |
* Rain latest hour (hover to see other rain measurements)
** Current wind speed in m/s (hover to see current wind gust speed)